Flag for Myanmar Weather past 2 weeks in Yangon, Myanmar

81 °F

Passing clouds.

Feels Like: 85 °F
Forecast: 75 / 90 °F
Wind: 3 mph from Southwest

Location: Rangoon Airport

Current Time: Nov 27, 2015 at 11:48:56 PM

Latest Report: Nov 27, 2015 at 11:30 PM

Visibility: 4 mi

Pressure: 29.92 "Hg

Humidity: 79%

Dew point: 73 °F

Location of YangonLocation

Historic Weather in Yangon — Graph


Yangon temperature yesterday

Maximum temperature yesterday: 91 °F (at 2:00 PM)
Minimum temperature yesterday: 68 °F (at 5:30 AM)
Average temperature yesterday: 83 °F

Past Weeks' High & Low Weather Summary

High93 °F (Nov 14, 2:00 PM)100% (Nov 24, 10:00 PM)29.98 "Hg (Nov 24, 10:00 PM)
Low68 °F (Nov 25, 5:30 AM)49% (Nov 17, 1:30 PM)29.77 "Hg (Nov 14, 3:30 PM)
Average84 °F73%29.87 "Hg
* Reported Nov 12 10:30 PM — Nov 27 10:30 PM, Yangon, Weather by CustomWeather, © 2015

Note: Actual official high and low records may vary slightly from our data, if they occured in-between our weather recording intervals... More about our weather records


Yangon weather history for previous 24 hours

Time TempWeatherWind HumidityBarometerVisibility
10:30 PM
Fri, Nov 27
81 °FPassing clouds.2 mph79%29.92 "Hg4 mi
10:00 PM81 °FPassing clouds.2 mph79%29.92 "Hg4 mi
9:30 PM82 °FPassing clouds.2 mph74%29.92 "Hg4 mi
9:00 PM82 °FPassing clouds.2 mph74%29.92 "Hg4 mi
8:30 PM82 °FPassing clouds.5 mph74%29.89 "Hg4 mi
8:00 PM82 °FPassing clouds.5 mph74%29.89 "Hg4 mi
7:00 PM84 °FPartly cloudy.3 mph70%29.86 "Hg4 mi
6:30 PM86 °FPartly cloudy.5 mph62%29.83 "Hg4 mi
6:00 PM86 °FPartly cloudy.5 mph62%29.83 "Hg4 mi
5:30 PM88 °FBroken clouds.5 mph66%29.83 "Hg5 mi
5:00 PM90 °FBroken clouds.6 mph63%29.80 "Hg5 mi
4:30 PM91 °FBroken clouds.5 mph52%29.80 "Hg5 mi
4:00 PM91 °FScattered clouds.5 mph52%29.80 "Hg5 mi
3:00 PM93 °FScattered clouds.8 mph56%29.80 "Hg6 mi
2:30 PM93 °FScattered clouds.5 mph56%29.80 "Hg6 mi
1:00 PM93 °FScattered clouds.8 mph56%29.83 "Hg6 mi
12:30 PM90 °FScattered clouds.5 mph63%29.86 "Hg6 mi
11:30 AM90 °FScattered clouds.8 mph63%29.89 "Hg6 mi
11:00 AM88 °FPassing clouds.8 mph66%29.89 "Hg6 mi
10:30 AM86 °FClear.6 mph62%29.92 "Hg5 mi
8:30 AM79 °FClear.6 mph84%29.89 "Hg5 mi
8:00 AM79 °FClear.6 mph84%29.89 "Hg5 mi
7:30 AM77 °FClear.5 mph89%29.86 "Hg4 mi
7:00 AM77 °FClear.5 mph89%29.86 "Hg4 mi
6:30 AM77 °FClear.3 mph89%29.83 "Hg4 mi
6:00 AM77 °FClear.3 mph89%29.83 "Hg4 mi
5:30 AM77 °FClear.3 mph89%29.83 "Hg4 mi
12:30 AM79 °FClear.3 mph84%29.86 "Hg4 mi
12:00 AM79 °FClear.3 mph84%29.86 "Hg4 mi
11:30 PM
Thu, Nov 26
81 °FClear.3 mph84%29.86 "Hg4 mi
11:00 PM81 °FClear.3 mph84%29.86 "Hg4 mi
Weather by CustomWeather, © 2015

See weather overviewHow to use our weather pages